STARLINK-30360, 57776

Orbit data source: Space-Track

STARLINK-30360, 57776 is a payload satellite owned by SpaceX/Seattle (US) in LEO that was launched on Mon, 04 Sep 2023 UTC via an FALCON 9 launch vehicle from the Air Force Eastern Test Range (AFETR). Payload-class satellites include a variety of spacecraft equipped with specific instruments for various scientific and technological missions. These include communications satellites like Starlink; space stations such as the ISS; scientific satellites like the Hubble; Earth observation satellites from companies like Planet Labs, Umbra, and HawkEye 360; GPS; miniature CubeSats for education and research; and military/defense satellites.

Loading next visibility...
Identifier
57776, 2023-134F
Orbit
LEO
Country
Flag of USUS
Related business
Manufacturer
SpaceX/Seattle
Mission
Operational Commercial Communications
Bus & Motor
STARLINK V2M, Unknown motor
Mass
730 kg wet, ~700 kg dry
Launch date (UTC)
2023-09-04 (2 years ago)
Launch vehicle
FALCON 9
Launch site
Air Force Eastern Test Range (AFETR)
Object type
Payload
Rocket body
Debris
Shape & HBR
Box + 2 Pan, 17.7 m
Radar Cross Section
33.884 m², Large (>1 m²)

Expand to show TLE details & history
Last TLE update: 18 hours ago

TLE from 18 hours ago
0 STARLINK-30360
1 57776U 23134F   25346.63548982  .00000399  00000-0  44605-4 0  9994
2 57776  43.0042 310.7381 0001190 273.7275  86.3431 15.02535887126372
Epoch: 2025-12-12T15:15Z
TLE epoch observation values (Epoch: 2025-12-12T15:15:06.320Z)
Latitude
-0.00004°
Longitude
0.38745°
Altitude
558.806 km
Speed
7.584 km/s
True Right ascension
20h 42m 57s
True Declination
0° 00' 00"
Sunlit
Object was in daylight at epoch
Visualization orbit readout
Latitude
Unknown
Longitude
Unknown
Altitude
Unknown
Speed
Unknown
Apparent Right ascension
Unknown
Apparent Declination
Unknown
Sunlit
N/A
Visualization observer readout
Local Sidereal Time
07:30:36
Azimuth
Unknown
Elevation
Unknown
Doppler factor
Unknown
Orbital elements
Apogee altitude
561.829 km
Perigee altitude
560.177 km
Semi-major axis
6,939.14 km
Eccentricity
0.00012
Inclination
43.0042°
RAAN
310.7381°
Arg. of periapsis
273.7275°
True anomaly
86.35671°
Mean anomaly
86.3431°
Eccentric anomaly
86.3499°
Mean motion
3.75478 °/min
Orbital period
95.88 mins
BSTAR
0.000044605
Loading maneuver chart data...
Computing Atmospheric mass density...
Loading historical data...
Loading historical data...
Loading historical data...
Loading historical data...
Loading historical data...
Loading historical data...
Loading historical data...

Documentation

Showing up to 5 results
|